[[{"header":{"parameterUnit":"m.s-1","parameterCategory":1,"la1":30.2991,"la2":30.254,"lo1":-89.0895,"lo2":-89.0444,"dy":0.0017,"dx":0.0017,"nx":28,"ny":28,"refTime":"2024-12-18T03:00:00:Z","depth":0,"parameterNumber":2,"parameterNumberName":"U-component_of_WINDS"},"data":[0,0,0,0,0,0,0,0,0,0,0,0,0,0,0,0,0,0,0,0,0,0,0,0,0,0,0,0,0,0,0,0,0,0,0,0,0,0,0,0,0,0,0,0,0,0,0,0,0,0,0,0,0,0,0,0,0,0,0.4466,0.4465,0,0.4425,0.4424,0.4424,0.4393,0.4393,0.4392,0.4392,0.4351,0.435,0.4349,0,0,0,0,0,0,0,0,0,0,0,0,0,0.4519,0.4518,0.4466,0.4465,0.4465,0.4425,0.4424,0.4424,0.4393,0.4393,0.4392,0.4392,0.4351,0.435,0.4349,0,0,0,0,0,0,0,0,0,0,0,0,0,0.4488,0.4517,0.4466,0.4444,0.4442,0.4425,0.4424,0.4424,0.4393,0.4393,0.4392,0.4392,0.4351,0.435,0.4349,0.435,0,0,0.4345,0.4345,0,0,0,0,0,0,0,0,0.449,0.4487,0.4448,0.4446,0.4443,0.4413,0.4428,0.4399,0.4393,0.4412,0.4392,0.4391,0.4372,0.4369,0.4362,0.4348,0.4346,0.4345,0.4344,0.4344,0.4343,0,0,0,0,0,0,0,0.4492,0.4488,0.4449,0.4448,0.4445,0.4437,0.4433,0.4422,0.4395,0.441,0.4408,0.4403,0.4371,0.4364,0.4361,0.4346,0.4345,0.4344,0.4343,0.4343,0.4332,0.4332,0,0,0,0,0,0,0.4498,0.449,0.4451,0.4448,0.4466,0.4437,0.4432,0.4423,0.4395,0.439,0.4404,0.4402,0.4366,0.4363,0.436,0.436,0.4344,0.4342,0.4342,0.4331,0.4332,0.4332,0,0,0,0,0,0,0.4499,0.4494,0.4452,0.4469,0.4463,0.4436,0.4428,0.4423,0.4416,0.439,0.4385,0.4401,0.4365,0.4361,0.4353,0.4358,0.4342,0.4341,0.4331,0.4331,0.4332,0.436,0,0,0,0,0,0,0.45,0.4495,0.4494,0.4469,0.4462,0.4446,0.4428,0.4422,0.4414,0.4411,0.4387,0.4382,0.4365,0.4355,0.4352,0.4356,0.434,0.433,0.4331,0.4332,0.4358,0.4361,0.4364,0,0,0,0,0,0.4502,0.4504,0.4495,0.449,0.4461,0.4446,0.4442,0.4422,0.4414,0.4414,0.4398,0.4383,0.4358,0.4354,0.435,0.4354,0.433,0.4331,0.4332,0.4357,0.436,0.4364,0,0,0,0,0,0,0.453,0.45,0.4489,0.4482,0.4467,0.4441,0.444,0.4427,0.4413,0.4411,0.4387,0.4382,0.4377,0.4365,0.4361,0.4355,0.4342,0.4342,0.4362,0.4366,0.4369,0.4371,0.4339,0,0,0,0,0,0.4536,0.4526,0.45,0.4496,0.4489,0.4466,0.4459,0.4445,0.4428,0.4422,0.4405,0.439,0.4378,0.4371,0.436,0.4357,0.4351,0.4357,0.436,0.4363,0.4363,0.4362,0.4365,0.4336,0.4336,0.4336,0,0,0.4546,0.4528,0.4524,0.4501,0.4488,0.4479,0.4461,0.4452,0.4445,0.442,0.4411,0.4399,0.438,0.4375,0.4372,0.4365,0.437,0.4364,0.4366,0.4365,0.4363,0.4366,0.4369,0.4336,0.4336,0.4336,0,0,0.4561,0.4546,0.4542,0.453,0.451,0.4495,0.4494,0.447,0.4461,0.4452,0.4434,0.4426,0.4407,0.4395,0.4386,0.4399,0.4386,0.4396,0.4411,0.441,0.4412,0.4414,0.442,0.4422,0.4397,0.4397,0.4397,0,0.4577,0.4562,0.4542,0.4534,0.4526,0.4503,0.45,0.4488,0.4466,0.4461,0.4453,0.443,0.4416,0.4408,0.4412,0.4405,0.4404,0.4399,0.4414,0.4415,0.4417,0.4422,0.4424,0.4399,0.4398,0.4398,0.4398,0,0.4583,0.4574,0.4573,0.4552,0.4544,0.4538,0.4517,0.4511,0.4499,0.4485,0.4477,0.4459,0.4444,0.4442,0.4429,0.4433,0.4429,0.4418,0.4405,0.4421,0.4426,0.4427,0.4401,0.44,0.44,0.4399,0,0,0.4613,0.4582,0.4582,0.4573,0.4551,0.4544,0.4538,0.4524,0.4519,0.4505,0.45,0.4486,0.4476,0.4467,0.4453,0.4452,0.4465,0.4441,0.4441,0.4447,0.4469,0.4478,0.448,0.4456,0.4456,0.4457,0.4471,0,0.4625,0.4613,0.4595,0.4589,0.4581,0.4561,0.4556,0.4542,0.453,0.4521,0.4508,0.4498,0.4485,0.448,0.4478,0.4464,0.4469,0.4462,0.4452,0.4452,0.4457,0.4482,0.449,0.4505,0.4472,0.4473,0.4473,0,0.4636,0.4624,0.4617,0.4597,0.4593,0.4589,0.4575,0.4568,0.4552,0.4543,0.4534,0.4519,0.4513,0.4502,0.4494,0.449,0.4485,0.4477,0.4477,0.4475,0.4463,0.4481,0.4509,0.4511,0.4475,0.4475,0.4475,0,0.4659,0.4641,0.4635,0.4628,0.4604,0.4602,0.4592,0.4577,0.457,0.4558,0.4554,0.4542,0.4535,0.4526,0.4509,0.4503,0.4504,0.4491,0.4497,0.4497,0.4497,0.4498,0.4525,0.4494,0.4494,0.4494,0.4494,0,0.4674,0.4671,0.4645,0.4642,0.4638,0.4619,0.4616,0.4604,0.4591,0.4586,0.4568,0.4563,0.4541,0.4534,0.4521,0.4517,0.4514,0.4507,0.4503,0.4509,0.4509,0.4505,0.4503,0.4495,0.4495,0.4495,0.4494,0,0.4699,0.4681,0.4674,0.4653,0.4647,0.4646,0.4628,0.4624,0.4612,0.4605,0.4602,0.4582,0.4573,0.4556,0.4542,0.4533,0.4532,0.4526,0.4538,0.4535,0.4543,0.4543,0.4568,0.457,0.4538,0.4539,0.4539,0,0.4709,0.4707,0.4686,0.4681,0.4672,0.4664,0.4657,0.4638,0.4632,0.4616,0.4615,0.4604,0.4595,0.4582,0.4567,0.4556,0.455,0.456,0.4548,0.4554,0.4551,0.4551,0.4551,0.4562,0.4562,0.4563,0.4563,0,0.473,0.4722,0.4713,0.4701,0.4694,0.4684,0.4673,0.467,0.4649,0.4643,0.4634,0.4627,0.4614,0.4604,0.4592,0.4583,0.457,0.4567,0.4568,0.4573,0.458,0.4577,0.4545,0.4566,0.4566,0.4566,0.4566,0.4565,0.4748,0.4745,0.4731,0.4722,0.4712,0.4702,0.4698,0.4686,0.4678,0.4665,0.4655,0.4647,0.4634,0.4616,0.4608,0.4602,0.4596,0.4597,0.4597,0.4598,0.46,0.4581,0.46,0.46,0.46,0.46,0.4599,0,0.4768,0.4759,0.475,0.4736,0.473,0.4719,0.4706,0.4702,0.4695,0.4684,0.4675,0.4666,0.4657,0.4642,0.4632,0.4631,0.4625,0.4629,0.4629,0.4627,0.4606,0.4607,0.4634,0.4634,0.4634,0.4634,0.4634,0.4634,0.4778,0.4774,0.4764,0.4755,0.4745,0.4738,0.4732,0.4724,0.4715,0.4705,0.4698,0.4688,0.4675,0.4665,0.4657,0.4653,0.465,0.4656,0.465,0.4631,0.4628,0.4625,0.4625,0.4656,0.4656,0.4671,0.4671,0.4672]},{"header":{"parameterUnit":"m.s-1","parameterCategory":1,"la1":30.2991,"la2":30.254,"lo1":-89.0895,"lo2":-89.0444,"dy":0.0017,"dx":0.0017,"nx":28,"ny":28,"refTime":"2024-12-18T03:00:00:Z","depth":0,"parameterNumber":3,"parameterNumberName":"V-component_of_WINDS"},"data":[0,0,0,0,0,0,0,0,0,0,0,0,0,0,0,0,0,0,0,0,0,0,0,0,0,0,0,0,0,0,0,0,0,0,0,0,0,0,0,0,0,0,0,0,0,0,0,0,0,0,0,0,0,0,0,0,0,0,-5.3387,-5.3389,0,-5.3557,-5.3559,-5.3561,-5.3565,-5.3563,-5.3561,-5.3559,-5.373,-5.3736,-5.3743,0,0,0,0,0,0,0,0,0,0,0,0,0,-5.3063,-5.3069,-5.3386,-5.3389,-5.3391,-5.3557,-5.3559,-5.3561,-5.3566,-5.3563,-5.3561,-5.3558,-5.3728,-5.3736,-5.3743,0,0,0,0,0,0,0,0,0,0,0,0,0,-5.3216,-5.3071,-5.3386,-5.3413,-5.3417,-5.3556,-5.3559,-5.3562,-5.3566,-5.3563,-5.356,-5.3557,-5.3725,-5.3735,-5.3744,-5.3867,0,0,-5.3774,-5.3778,0,0,0,0,0,0,0,0,-5.3207,-5.3227,-5.3407,-5.3412,-5.3416,-5.3537,-5.3508,-5.3664,-5.3567,-5.351,-5.3559,-5.3556,-5.3668,-5.3682,-5.3721,-5.3875,-5.3882,-5.3775,-5.3781,-5.3785,-5.3788,0,0,0,0,0,0,0,-5.3196,-5.322,-5.3454,-5.341,-5.3415,-5.3416,-5.3434,-5.3537,-5.3604,-5.3514,-5.3515,-5.3535,-5.367,-5.3712,-5.3725,-5.3885,-5.3775,-5.3783,-5.3789,-5.3793,-5.4149,-5.4153,0,0,0,0,0,0,-5.3181,-5.3211,-5.3448,-5.3459,-5.3302,-5.3424,-5.3445,-5.3501,-5.3603,-5.3616,-5.3538,-5.3535,-5.3696,-5.3714,-5.3731,-5.3883,-5.3785,-5.3794,-5.38,-5.4146,-5.415,-5.4154,0,0,0,0,0,0,-5.3174,-5.3202,-5.3442,-5.3336,-5.3366,-5.3433,-5.3497,-5.3506,-5.3548,-5.3621,-5.3632,-5.3568,-5.3695,-5.3717,-5.3834,-5.3889,-5.3798,-5.3807,-5.4142,-5.4147,-5.4152,-5.4186,0,0,0,0,0,0,-5.3165,-5.3199,-5.3247,-5.3337,-5.3372,-5.3542,-5.35,-5.3512,-5.3565,-5.3563,-5.3652,-5.3664,-5.3694,-5.3819,-5.3843,-5.39,-5.3815,-5.4137,-5.4144,-5.415,-5.418,-5.4192,-5.4202,0,0,0,0,0,-5.3153,-5.3248,-5.3249,-5.3278,-5.3433,-5.3545,-5.3565,-5.3599,-5.3569,-5.3618,-5.3665,-5.3661,-5.3878,-5.3831,-5.3858,-5.3919,-5.4134,-5.4142,-5.415,-5.4175,-5.4189,-5.4201,0,0,0,0,0,0,-5.3161,-5.326,-5.3263,-5.339,-5.346,-5.3546,-5.3608,-5.3612,-5.369,-5.3685,-5.3722,-5.3742,-5.3858,-5.39,-5.3845,-5.4044,-5.4003,-5.4017,-5.4012,-5.4026,-5.4037,-5.4025,-5.3823,0,0,0,0,0,-5.3178,-5.3263,-5.3344,-5.3448,-5.3483,-5.354,-5.359,-5.361,-5.3683,-5.3712,-5.3767,-5.3837,-5.3922,-5.3976,-5.4057,-5.4186,-5.4206,-5.4241,-5.4252,-5.426,-5.4272,-5.4345,-5.4362,-5.4181,-5.4181,-5.4181,0,0,-5.3214,-5.3278,-5.3329,-5.3452,-5.3508,-5.3594,-5.3564,-5.3656,-5.372,-5.3725,-5.384,-5.3883,-5.3963,-5.4087,-5.4144,-5.4125,-5.4327,-5.4271,-5.4277,-5.4284,-5.4355,-5.4372,-5.4387,-5.4187,-5.4186,-5.4185,0,0,-5.3322,-5.3379,-5.3474,-5.3531,-5.3617,-5.3655,-5.3677,-5.3764,-5.3794,-5.3909,-5.3915,-5.3992,-5.4135,-5.4194,-5.4242,-5.4375,-5.4375,-5.44,-5.4456,-5.4527,-5.4541,-5.4554,-5.4603,-5.462,-5.4411,-5.4412,-5.4412,0,-5.3355,-5.3486,-5.3521,-5.3614,-5.3668,-5.3679,-5.3775,-5.3829,-5.3936,-5.3973,-5.3951,-5.4134,-5.4189,-5.4327,-5.436,-5.4398,-5.4425,-5.439,-5.4537,-5.455,-5.4562,-5.4609,-5.4627,-5.4414,-5.4414,-5.4414,-5.4413,0,-5.3523,-5.3613,-5.3679,-5.3785,-5.3847,-5.394,-5.399,-5.4048,-5.4063,-5.4102,-5.422,-5.4287,-5.4383,-5.4417,-5.4431,-5.4558,-5.4544,-5.4529,-5.4488,-5.4582,-5.4626,-5.4645,-5.4418,-5.4417,-5.4416,-5.4415,0,0,-5.364,-5.3767,-5.379,-5.384,-5.3936,-5.4007,-5.4101,-5.4197,-5.4247,-5.4321,-5.4402,-5.4524,-5.4512,-5.4566,-5.4588,-5.4649,-5.4753,-5.4627,-5.4629,-5.4649,-5.4898,-5.4909,-5.493,-5.4753,-5.4757,-5.476,-5.4891,0,-5.3761,-5.3931,-5.3966,-5.4113,-5.4198,-5.421,-5.4292,-5.4361,-5.44,-5.4478,-5.4521,-5.4608,-5.4584,-5.4617,-5.4679,-5.4727,-5.4803,-5.4718,-5.4829,-5.4832,-5.4809,-5.4953,-5.4965,-5.5086,-5.4909,-5.4912,-5.4914,0,-5.3923,-5.4004,-5.416,-5.4248,-5.4285,-5.4358,-5.445,-5.4524,-5.4602,-5.4626,-5.4689,-5.4704,-5.4803,-5.4757,-5.4894,-5.4836,-5.4883,-5.4913,-5.4919,-5.4931,-5.4879,-5.497,-5.5126,-5.5144,-5.4942,-5.494,-5.4938,0,-5.3995,-5.4143,-5.4256,-5.4297,-5.4402,-5.4454,-5.45,-5.4575,-5.4631,-5.471,-5.4747,-5.4836,-5.4885,-5.4954,-5.4993,-5.4956,-5.5128,-5.5085,-5.5151,-5.515,-5.5187,-5.5184,-5.5353,-5.5216,-5.5216,-5.5215,-5.5215,0,-5.4126,-5.4222,-5.429,-5.4359,-5.4467,-5.4506,-5.4611,-5.4657,-5.4724,-5.4802,-5.4817,-5.489,-5.4937,-5.5016,-5.5047,-5.5157,-5.5178,-5.5201,-5.5208,-5.5201,-5.5198,-5.5233,-5.5226,-5.522,-5.5219,-5.5218,-5.5217,0,-5.4225,-5.4275,-5.4399,-5.4489,-5.4514,-5.4589,-5.4666,-5.4734,-5.4774,-5.4873,-5.4899,-5.4962,-5.5057,-5.5103,-5.5219,-5.524,-5.5365,-5.5366,-5.5339,-5.5342,-5.5406,-5.54,-5.5605,-5.5634,-5.5476,-5.5477,-5.5478,0,-5.4306,-5.438,-5.4479,-5.4533,-5.4581,-5.4668,-5.4726,-5.4768,-5.4828,-5.4923,-5.498,-5.5076,-5.5155,-5.5306,-5.5362,-5.5452,-5.5456,-5.5521,-5.5469,-5.546,-5.5458,-5.5454,-5.5462,-5.553,-5.5532,-5.5533,-5.5534,0,-5.4445,-5.4466,-5.455,-5.4643,-5.4712,-5.4787,-5.486,-5.4904,-5.4957,-5.5024,-5.5122,-5.5184,-5.5305,-5.54,-5.5494,-5.554,-5.5547,-5.555,-5.5571,-5.5564,-5.5546,-5.5558,-5.5366,-5.5545,-5.5544,-5.5543,-5.5543,-5.5542,-5.4538,-5.4605,-5.4686,-5.4779,-5.4839,-5.4908,-5.4977,-5.5028,-5.5111,-5.5214,-5.5233,-5.5338,-5.5415,-5.5543,-5.5593,-5.5675,-5.566,-5.5689,-5.5696,-5.5703,-5.5707,-5.5532,-5.5692,-5.5691,-5.5691,-5.5691,-5.5691,0,-5.4679,-5.4732,-5.4817,-5.4921,-5.4994,-5.4996,-5.5077,-5.5139,-5.5231,-5.5303,-5.5382,-5.5496,-5.5589,-5.5653,-5.5747,-5.5801,-5.5806,-5.5824,-5.5821,-5.5832,-5.5714,-5.5688,-5.5818,-5.5818,-5.5818,-5.5818,-5.5818,-5.5818,-5.476,-5.4875,-5.4906,-5.5051,-5.5103,-5.5207,-5.5254,-5.5318,-5.5376,-5.5503,-5.5582,-5.5623,-5.5693,-5.5793,-5.5878,-5.5895,-5.5929,-5.5948,-5.5964,-5.5853,-5.584,-5.5827,-5.5803,-5.5955,-5.5955,-5.6075,-5.6076,-5.6077]}]]